[TLELIST] Archives

 

[list_settings.list_name] Current TLEs

August 15th 2008 PST

HST 1 20580U 90037B 08226.61608713 +.00000279 +00000-0 +86842-5 0 02101 2 20580 028.4696 308.6497 0003639 269.8155 090.2018 15.00398783803618 ISS (ZARYA) 1 25544U 98067A 08227.51110226 .00011863 00000-0 97258-4 0 554 2 25544 051.6448 076.8280 0008059 018.2040 075.2824 15.70962716557715 CXO 1 25867U 99040B 08225.75000000 -.00000003 +00000-0 +10000-3 0 02327 2 25867 064.0271 078.9218 6940245 278.2717 358.6439 00.37805384003840 ____________________________________________________________________ These 2-Line ...Continue Reading

[list_settings.list_name] Current TLEs

August 14th 2008 PST

HST 1 20580U 90037B 08225.68483279 .00000277 00000-0 85436-5 0 1986 2 20580 028.4696 314.7230 0003672 259.7863 100.2311 15.00398559803475 ISS (ZARYA) 1 25544U 98067A 08225.86121756 +.00011711 +00000-0 +88245-4 0 00435 2 25544 051.6417 085.2623 0010607 062.3973 050.5522 15.72979094557454 CXO 1 25867U 99040B 08225.75000000 -.00000003 +00000-0 +10000-3 0 02327 2 25867 064.0271 078.9218 6940245 278.2717 358.6439 00.37805384003840 ____________________________________________________________________ These 2-Line ...Continue Reading

[list_settings.list_name] Current TLEs

August 13th 2008 PST

HST 1 20580U 90037B 08225.68483279 .00000277 00000-0 85436-5 0 1986 2 20580 028.4696 314.7230 0003672 259.7863 100.2311 15.00398559803475 ISS (ZARYA) 1 25544U 98067A 08226.17630984 .00011857 00000-0 89260-4 0 459 2 25544 051.6419 083.6474 0010490 062.7294 035.7072 15.72987362557500 CXO 1 25867U 99040B 08225.75000000 -.00000003 +00000-0 +10000-3 0 02327 2 25867 064.0271 078.9218 6940245 278.2717 358.6439 00.37805384003840 ____________________________________________________________________ These 2-Line ...Continue Reading

[list_settings.list_name] Current TLEs

August 12th 2008 PST

HST 1 20580U 90037B 08224.55402440 .00000252 00000-0 65720-5 0 1978 2 20580 028.4699 322.0990 0003761 247.4703 112.5491 15.00398147803309 ISS (ZARYA) 1 25544U 98067A 08224.85619213 .00010372 00000-0 78795-4 0 355 2 25544 051.6413 090.4146 0010399 058.3318 119.6337 15.72949125557299 CXO 1 25867U 99040B 08223.08333333 -.00000061 +00000-0 +10000-3 0 02312 2 25867 064.0180 078.9882 6934077 278.2943 355.6142 00.37804882003832 ____________________________________________________________________ These 2-Line ...Continue Reading

[list_settings.list_name] Current TLEs

August 11th 2008 PST

HST 1 20580U 90037B 08222.69151607 .00000263 00000-0 74438-5 0 1964 2 20580 028.4698 334.2462 0003801 228.1978 131.8285 15.00397875803023 ISS (ZARYA) 1 25544U 98067A 08223.82526132 .00008988 00000-0 68983-4 0 288 2 25544 051.6410 095.7003 0010284 054.7432 041.5524 15.72921023557137 CXO 1 25867U 99040B 08223.08333333 -.00000061 +00000-0 +10000-3 0 02312 2 25867 064.0180 078.9882 6934077 278.2943 355.6142 00.37804882003832 ____________________________________________________________________ These 2-Line ...Continue Reading

[list_settings.list_name] Current TLEs

August 10th 2008 PST

HST 1 20580U 90037B 08222.69151607 .00000263 00000-0 74438-5 0 1964 2 20580 028.4698 334.2462 0003801 228.1978 131.8285 15.00397875803023 ISS (ZARYA) 1 25544U 98067A 08223.18921414 .00008400 00000-0 64811-4 0 240 2 25544 051.6411 098.9613 0010451 052.2327 040.0128 15.72906000557033 CXO 1 25867U 99040B 08223.08333333 -.00000061 +00000-0 +10000-3 0 02312 2 25867 064.0180 078.9882 6934077 278.2943 355.6142 00.37804882003832 ____________________________________________________________________ These 2-Line ...Continue Reading

[list_settings.list_name] Current TLEs

August 9th 2008 PST

HST 1 20580U 90037B 08221.56070768 .00000250 00000-0 64362-5 0 1957 2 20580 028.4698 341.6215 0003851 217.6997 142.3320 15.00397538802853 ISS (ZARYA) 1 25544U 98067A 08221.85545132 .00007737 00000-0 60123-4 0 155 2 25544 051.6414 105.7986 0010386 047.4175 047.4143 15.72879784556822 CXO 1 25867U 99040B 08223.08333333 -.00000061 +00000-0 +10000-3 0 02312 2 25867 064.0180 078.9882 6934077 278.2943 355.6142 00.37804882003832 ____________________________________________________________________ These 2-Line ...Continue Reading

[list_settings.list_name] Current TLEs

August 8th 2008 PST

HST 1 20580U 90037B 08219.76471762 .00000267 00000-0 78087-5 0 1941 2 20580 028.4697 353.3330 0003866 198.8395 161.2052 15.00397323802582 ISS (ZARYA) 1 25544U 98067A 08219.81347098 +.00007326 +00000-0 +57264-4 0 00010 2 25544 051.6417 116.2666 0010257 040.2184 004.5083 15.72844703556500 CXO 1 25867U 99040B 08220.45833333 -.00000052 +00000-0 +10000-3 0 02304 2 25867 064.0066 079.0366 6927481 278.3372 358.2317 00.37803898003820 ____________________________________________________________________ These 2-Line ...Continue Reading

[list_settings.list_name] Current TLEs

August 5th 2008 PST

HST 1 20580U 90037B 08216.83791993 .00000275 00000-0 83972-5 0 1923 2 20580 028.4698 012.4279 0003895 170.0994 189.9672 15.00396767802145 ISS (ZARYA) 1 25544U 98067A 08217.51666667 .00006963 00000-0 54742-4 0 9878 2 25544 051.6426 128.0409 0010103 031.9814 319.0763 15.72807347556134 CXO 1 25867U 99040B 08217.83333333 -.00000005 00000-0 10000-3 0 2293 2 25867 063.9918 079.0861 6922587 278.3872 000.8125 00.37805119 3815 ____________________________________________________________________ These 2-Line ...Continue Reading

[list_settings.list_name] Current TLEs

August 4th 2008 PST

HST 1 20580U 90037B 08216.83791993 .00000275 00000-0 83972-5 0 1923 2 20580 028.4698 012.4279 0003895 170.0994 189.9672 15.00396767802145 ISS (ZARYA) 1 25544U 98067A 08216.39338084 .00006601 00000-0 52174-4 0 9801 2 25544 051.6420 133.7960 0010147 027.9325 078.7101 15.72789016555960 CXO 1 25867U 99040B 08217.83333333 -.00000005 00000-0 10000-3 0 2293 2 25867 063.9918 079.0861 6922587 278.3872 000.8125 00.37805119 3815 ____________________________________________________________________ These 2-Line ...Continue Reading
  • This mailing list is a public mailing list - anyone may join or leave, at any time.
  • This mailing list is announce-only.

International Space Station (ISS) / Hubble Space Telescope (HST) / Chandra X-Ray Observatory Orbital Data via EMAIL

Privacy Policy:

Private list